Location: Unnamed
(47.6264°N, 122.3366°W)
Time: 12:26:07
(UTC-07:00)

UPPER FREE FLYER - Pass Details

Date: 07 August 2020
Orbit: 571 x 589 km, 97.7° (Epoch: 01 October)

Event Time Altitude Azimuth Distance (km) Brightness Sun altitude
Exits shadow 23:41:38 27° 243° (WSW) 1,130 ? -23.0°
Maximum altitude 23:42:27 29° 265° (W) 1,074 ? -23.1°
Drops below altitude 10° 23:46:02 10° 326° (NW) 1,893 ? -23.3°
Sets 23:48:26 0° 338° (NNW) 2,800 ? -23.5°
